Regional Weather Roundup
Issued by NWS Charleston, WV

Home | Current Version | Previous Version | Graphics & Text | Print | Product List | Glossary On
Versions: 1 2 3 4 5 6 7 8 9 10 11 12 13 14 15 16 17 18 19 20 21 22 23 24 25 26 27 28 29 30 31 32 33 34 35 36 37 38 39 40 41
000
ASUS41 KRLX 221110
RWRRLX
West Virginia Regional Weather Roundup
National Weather Service Charleston WV
700 AM EDT WED MAR 22 2017

Note: "fair" indicates few or no clouds below 12,000 feet with no
significant weather and/or obstructions to visibility.

WVZ003-221200-
Northern Panhandle of West Virginia

CITY           SKY/WX    TMP DP  RH WIND       PRES   REMARKS
WHEELING       CLOUDY    27  12  53 N21G29    30.29R
$$

WVZ009-221200-
Northwest West Virginia

CITY           SKY/WX    TMP DP  RH WIND       PRES   REMARKS
PARKERSBURG    CLEAR     30  18  60 NW7       30.33R
$$

WVZ006-221200-
Western West Virginia

CITY           SKY/WX    TMP DP  RH WIND       PRES   REMARKS
HUNTINGTON     CLEAR     33  23  66 N7        30.30R
$$

WVZ015-221200-
West Central West Virginia

CITY           SKY/WX    TMP DP  RH WIND       PRES   REMARKS
CHARLESTON     CLOUDY    36  26  67 VRB6      30.26R
$$

WVZ022-031-221200-
North Central West Virginia

CITY           SKY/WX    TMP DP  RH WIND       PRES   REMARKS
CLARKSBURG     CLOUDY    32  20  61 N9        30.25R
MORGANTOWN     CLOUDY    29  13  51 N17G25    30.27R
$$

WVZ025-035-042-045-221200-
Southern West Virginia

CITY           SKY/WX    TMP DP  RH WIND       PRES   REMARKS
BECKLEY        CLEAR     33  23  66 N13       30.15R
LOGAN          CLOUDY    36  27  69 N5G12     30.22R
BLUEFIELD      PTCLDY    37  28  70 NW8G17    30.12R
LEWISBURG      CLEAR     36  24  60 CALM      30.12R
$$

WVZ047-221200-
Northern Mountains of West Virginia

CITY           SKY/WX    TMP DP  RH WIND       PRES   REMARKS
ELKINS         CLOUDY    31  21  66 N10       30.19R
$$

WVZ052-221200-
Eastern Panhandle of West Virginia

CITY           SKY/WX    TMP DP  RH WIND       PRES   REMARKS
MARTINSBURG    CLEAR     35  18  49 N20G29    30.13R
PETERSBURG     CLOUDY    36  23  59 NW13G29   30.18R
$$




USA.gov is the U.S. government's official web portal to all federal, state and local government web resources and services.